Overview Statistics Trail Chart Weather Telemetry Raw packets
 

This is the latest recevied weather packets stored in our database for station/object HS2GJW-1. If no packets are shown the sender has not sent any weather packets the latest 10 day(s).

<< 12 13 14 15 16 17 18 >>
Time Temp. Humidity Pressure Rain* Wind** Luminosity Snow
1788225520 30° C 99% 1011 hPa - - 0 W/m² -
1788224894 30° C 99% 1011 hPa - - 0 W/m² -
1788224268 30° C 99% 1010 hPa - - 0 W/m² -
1788223639 29.44° C 99% 1010 hPa - - 0 W/m² -
1788223012 29.44° C 99% 1010 hPa - - 0 W/m² -
1788222385 29.44° C 99% 1010 hPa - - 0 W/m² -
1788221760 29.44° C 99% 1010 hPa - - 0 W/m² -
1788221134 28.89° C 99% 1010 hPa - - 0 W/m² -
1788220509 28.89° C 99% 1010 hPa - - 0 W/m² -
1788219884 28.89° C 99% 1010 hPa - - 0 W/m² -
1788219259 28.33° C 99% 1010 hPa - - 0 W/m² -
1788218636 27.78° C 99% 1010 hPa - - 0 W/m² -
1788177066 29.44° C 99% 1008 hPa - - 0 W/m² -
1788176442 30° C 99% 1008 hPa - - 0 W/m² -
1788175818 30.56° C 99% 1008 hPa - - 0 W/m² -
1788175191 30.56° C 97% 1008 hPa - - 0 W/m² -
1788174561 30.56° C 98% 1008 hPa - - 0 W/m² -
1788173935 31.11° C 99% 1007 hPa - - 0 W/m² -
1788173309 31.67° C 97% 1007 hPa - - 0 W/m² -
1788172683 32.22° C 91% 1007 hPa - - 0 W/m² -
1788172056 32.22° C 89% 1007 hPa - - 0 W/m² -
1788171427 32.78° C 84% 1007 hPa - - 0 W/m² -
1788170799 32.78° C 84% 1007 hPa - - 0 W/m² -
1788170169 32.22° C 84% 1007 hPa - - 0 W/m² -
1788169539 32.78° C 83% 1007 hPa - - 0 W/m² -

* Rain since midnight (hover to see other rain measurements)
** Current wind speed in m/s (hover to see current wind gust speed)